Dewpoint
-1 -2 -2 -2 -3 -3 -4 -4 -5 -5 -6 -8 -10 -11 -13 -14 -16 -17 -18 -19 -19 -18 -17 -14 -14 -15 -18 -20 -20 -20 -21 -23 -25 -26 -28 -31 -31 -30 -31 -30 -29 -30 -28 -26 -27 -29 -29 -29 -30 -30 -30 -30 -31 -31 -31 -32 -32 -32 -33 -33 -33 -34 -34
-2 -2 -3 -3 -4 -4 -4 -5 -6 -7 -8 -11 -12 -13 -14 -16 -17 -18 -19 -18 -17 -15 -13 -11 -10 -12 -13 -15 -16 -17 -20 -22 -24 -27 -29 -30 -30 -29 -29 -29 -28 -28 -28 -28 -29 -29 -29 -29 -30 -30 -30 -30 -31 -31 -32 -32 -32 -33 -33 -33 -34 -34 -34
-2 -3 -3 -4 -4 -4 -5 -6 -7 -9 -11 -13 -13 -14 -16 -17 -18 -18 -17 -15 -13 -10 -8 -7 -8 -10 -13 -15 -17 -19 -22 -25 -26 -28 -29 -29 -29 -28 -28 -28 -28 -28 -28 -28 -29 -29 -29 -30 -30 -30 -31 -31 -31 -32 -32 -32 -32 -33 -33 -34 -34 -34 -34
-3 -3 -4 -4 -5 -5 -6 -7 -9 -11 -12 -14 -15 -16 -18 -18 -17 -16 -13 -11 -9 -7 -7 -8 -10 -12 -14 -17 -19 -22 -24 -25 -27 -27 -28 -28 -28 -27 -27 -27 -27 -28 -28 -29 -29 -29 -30 -30 -30 -31 -31 -32 -32 -32 -32 -32 -33 -33 -34 -34 -34 -34 -35
-3 -4 -4 -5 -5 -6 -7 -8 -11 -12 -13 -15 -18 -18 -18 -17 -14 -12 -10 -9 -8 -7 -7 -8 -10 -11 -14 -16 -19 -22 -23 -24 -26 -27 -27 -27 -27 -27 -27 -27 -28 -28 -29 -29 -29 -29 -30 -31 -31 -31 -32 -32 -32 -32 -33 -33 -33 -33 -34 -34 -34 -34 -35
-4 -4 -5 -5 -6 -7 -8 -10 -12 -13 -14 -17 -19 -18 -16 -14 -12 -11 -9 -8 -7 -7 -7 -8 -10 -12 -15 -17 -19 -21 -23 -24 -26 -26 -27 -27 -27 -27 -27 -28 -28 -28 -29 -29 -30 -30 -30 -31 -31 -31 -32 -32 -32 -33 -33 -33 -34 -33 -34 -34 -35 -35 -35
-4 -5 -6 -6 -7 -8 -9 -11 -13 -15 -17 -18 -18 -16 -14 -12 -11 -9 -8 -7 -7 -7 -8 -9 -11 -14 -16 -18 -20 -22 -24 -25 -26 -26 -26 -27 -27 -27 -28 -28 -29 -29 -29 -30 -30 -30 -31 -31 -32 -32 -32 -32 -32 -33 -33 -33 -33 -34 -34 -35 -35 -35 -35
-5 -6 -6 -7 -8 -9 -11 -13 -15 -17 -18 -18 -16 -14 -12 -10 -9 -8 -7 -7 -8 -8 -10 -12 -13 -16 -18 -20 -21 -23 -24 -25 -26 -26 -26 -27 -27 -27 -28 -28 -29 -29 -30 -30 -30 -31 -31 -31 -32 -32 -32 -33 -33 -33 -33 -33 -33 -34 -34 -34 -34 -34 -34
-6 -6 -7 -8 -9 -10 -12 -14 -16 -16 -16 -15 -13 -11 -10 -8 -8 -7 -7 -8 -9 -10 -12 -13 -15 -17 -18 -20 -21 -22 -24 -24 -25 -26 -26 -27 -27 -28 -28 -29 -29 -30 -30 -30 -31 -31 -31 -32 -32 -32 -32 -33 -33 -33 -33 -33 -33 -34 -34 -34 -34 -35 -34
-6 -7 -8 -8 -9 -11 -12 -14 -14 -14 -13 -12 -10 -9 -8 -7 -7 -8 -9 -10 -11 -12 -13 -14 -16 -17 -19 -20 -21 -22 -23 -24 -25 -26 -26 -27 -28 -28 -29 -29 -30 -30 -30 -30 -31 -31 -32 -32 -32 -32 -32 -33 -33 -33 -33 -33 -33 -33 -34 -33 -34 -35 -34
-7 -8 -8 -9 -10 -11 -11 -12 -12 -12 -10 -9 -8 -8 -7 -8 -8 -9 -10 -11 -12 -13 -14 -15 -17 -18 -19 -20 -21 -22 -23 -24 -25 -26 -26 -27 -28 -28 -29 -29 -30 -30 -30 -30 -31 -31 -31 -32 -32 -32 -32 -33 -33 -33 -33 -33 -33 -33 -33 -32 -33 -33 -34
-8 -8 -9 -9 -9 -10 -10 -11 -11 -10 -8 -8 -7 -8 -8 -9 -9 -10 -11 -12 -13 -14 -15 -16 -18 -19 -20 -21 -22 -23 -24 -25 -25 -26 -26 -27 -28 -28 -29 -30 -30 -30 -30 -30 -31 -31 -32 -32 -32 -32 -32 -32 -32 -32 -32 -32 -32 -32 -32 -32 -32 -32 -33
-8 -8 -8 -9 -9 -10 -10 -10 -9 -8 -7 -7 -8 -8 -9 -10 -10 -11 -12 -13 -14 -15 -16 -17 -18 -19 -20 -21 -22 -22 -23 -24 -25 -25 -26 -27 -28 -29 -30 -30 -30 -30 -30 -31 -31 -31 -32 -32 -32 -32 -32 -32 -31 -32 -32 -32 -32 -32 -31 -32 -32 -32 -33
-8 -8 -8 -9 -9 -9 -9 -9 -8 -7 -7 -8 -8 -9 -10 -11 -12 -12 -13 -14 -14 -15 -15 -16 -17 -17 -18 -19 -21 -22 -23 -24 -25 -26 -27 -28 -29 -29 -30 -30 -30 -30 -30 -31 -31 -31 -32 -32 -32 -32 -32 -31 -32 -31 -31 -31 -31 -32 -32 -33 -32 -32 -33
-8 -8 -9 -9 -9 -9 -9 -8 -7 -7 -8 -8 -9 -10 -11 -11 -12 -13 -13 -14 -14 -14 -15 -15 -16 -17 -18 -20 -21 -22 -24 -25 -26 -27 -28 -28 -29 -30 -29 -30 -30 -30 -31 -31 -31 -31 -31 -31 -32 -31 -31 -32 -31 -31 -31 -31 -32 -32 -32 -32 -31 -31 -32
-8 -9 -9 -9 -9 -8 -8 -8 -7 -8 -8 -9 -10 -11 -11 -12 -12 -13 -13 -14 -14 -14 -15 -16 -17 -18 -19 -21 -23 -24 -25 -26 -26 -27 -28 -29 -29 -29 -29 -30 -30 -30 -31 -31 -31 -31 -31 -31 -32 -31 -31 -31 -31 -31 -31 -31 -31 -31 -30 -30 -29 -30 -31
-8 -9 -9 -9 -9 -8 -8 -8 -8 -8 -9 -10 -10 -11 -11 -12 -12 -13 -13 -14 -15 -15 -16 -17 -19 -20 -22 -23 -24 -25 -25 -27 -27 -28 -29 -29 -29 -29 -30 -30 -30 -30 -31 -31 -31 -31 -31 -31 -31 -31 -31 -31 -31 -31 -31 -30 -30 -30 -30 -29 -29 -30 -30
-9 -9 -9 -9 -8 -8 -8 -8 -8 -9 -10 -10 -11 -11 -12 -12 -13 -13 -14 -15 -15 -16 -18 -19 -20 -22 -23 -24 -25 -26 -26 -27 -28 -28 -29 -29 -29 -30 -30 -30 -30 -31 -31 -31 -31 -31 -31 -32 -32 -31 -31 -31 -32 -31 -31 -30 -30 -30 -29 -29 -29 -29 -29
-9 -9 -9 -8 -8 -8 -8 -8 -9 -10 -10 -11 -11 -12 -12 -13 -13 -14 -15 -16 -17 -18 -19 -21 -22 -23 -24 -25 -26 -27 -27 -28 -28 -28 -29 -29 -29 -30 -31 -31 -31 -31 -31 -31 -31 -32 -32 -32 -32 -32 -32 -32 -32 -32 -31 -30 -30 -29 -29 -29 -28 -28 -28
-9 -9 -8 -8 -8 -8 -8 -9 -10 -10 -11 -11 -11 -12 -13 -13 -14 -16 -17 -18 -19 -20 -21 -22 -23 -24 -25 -26 -27 -27 -27 -28 -28 -29 -29 -29 -30 -31 -31 -31 -31 -32 -32 -32 -32 -32 -32 -33 -33 -33 -33 -33 -32 -32 -31 -30 -30 -29 -29 -28 -28 -27 -27
-9 -8 -8 -8 -8 -8 -9 -10 -10 -11 -11 -11 -12 -13 -14 -15 -17 -19 -20 -21 -22 -22 -23 -24 -24 -25 -25 -26 -27 -27 -27 -28 -28 -29 -30 -30 -31 -31 -31 -32 -32 -32 -32 -32 -33 -33 -33 -33 -33 -33 -33 -33 -32 -31 -30 -30 -29 -29 -28 -28 -27 -27 -26
-9 -8 -8 -8 -9 -9 -10 -10 -11 -11 -12 -12 -13 -14 -16 -18 -20 -22 -22 -23 -23 -23 -24 -24 -25 -25 -26 -26 -26 -27 -27 -28 -29 -29 -30 -31 -31 -31 -32 -32 -32 -33 -33 -33 -33 -33 -33 -33 -33 -33 -33 -32 -31 -31 -30 -30 -29 -29 -28 -28 -27 -26 -26
-9 -8 -8 -9 -9 -10 -10 -11 -11 -12 -12 -13 -15 -17 -20 -22 -23 -23 -24 -24 -24 -24 -24 -25 -25 -26 -26 -26 -27 -27 -28 -29 -29 -30 -31 -31 -32 -32 -32 -33 -33 -33 -33 -33 -33 -33 -33 -33 -33 -32 -32 -31 -31 -30 -30 -29 -29 -28 -27 -27 -27 -26 -26
-9 -8 -9 -9 -10 -10 -11 -11 -12 -12 -13 -15 -18 -21 -23 -24 -24 -24 -25 -25 -24 -24 -25 -25 -25 -26 -26 -26 -27 -27 -28 -29 -30 -31 -31 -32 -32 -33 -33 -33 -33 -32 -32 -32 -32 -32 -32 -32 -32 -31 -31 -30 -30 -29 -29 -28 -28 -27 -26 -26 -26 -26 -26
-9 -9 -9 -10 -10 -11 -11 -12 -13 -14 -16 -19 -21 -23 -23 -24 -25 -25 -25 -25 -24 -25 -25 -25 -26 -26 -26 -27 -27 -28 -29 -30 -31 -31 -32 -32 -32 -33 -33 -33 -32 -31 -31 -31 -31 -31 -31 -31 -31 -30 -30 -30 -29 -28 -28 -27 -26 -25 -25 -25 -25 -26 -26
-9 -9 -10 -10 -11 -11 -12 -13 -14 -17 -19 -21 -22 -23 -24 -25 -25 -25 -25 -24 -25 -25 -25 -26 -26 -26 -26 -27 -28 -29 -30 -31 -31 -32 -32 -33 -33 -33 -33 -32 -31 -30 -30 -30 -30 -30 -30 -30 -30 -29 -29 -28 -28 -27 -26 -25 -25 -24 -24 -24 -25 -25 -25
-10 -10 -10 -11 -11 -12 -13 -15 -17 -19 -20 -21 -22 -24 -25 -25 -25 -25 -25 -25 -25 -25 -26 -26 -26 -26 -27 -27 -29 -30 -31 -31 -32 -32 -32 -33 -33 -33 -32 -31 -31 -30 -30 -30 -30 -29 -29 -29 -28 -28 -28 -27 -27 -26 -25 -24 -24 -24 -24 -24 -24 -25 -25
-10 -10 -10 -11 -12 -13 -15 -16 -17 -18 -19 -21 -23 -24 -25 -25 -25 -25 -25 -25 -26 -26 -26 -26 -26 -27 -27 -29 -30 -31 -31 -32 -32 -32 -33 -33 -33 -33 -32 -31 -30 -30 -30 -29 -29 -28 -28 -28 -27 -27 -27 -26 -26 -25 -24 -24 -24 -23 -24 -24 -24 -24 -25
-10 -10 -11 -12 -13 -14 -15 -16 -16 -18 -20 -23 -24 -24 -25 -25 -25 -25 -25 -25 -26 -26 -26 -26 -27 -28 -29 -30 -31 -31 -32 -32 -32 -33 -33 -33 -33 -32 -32 -31 -30 -30 -29 -28 -28 -28 -27 -27 -27 -27 -26 -26 -25 -24 -24 -23 -23 -24 -24 -24 -24 -24 -24
-11 -12 -13 -13 -14 -15 -15 -16 -18 -21 -22 -23 -23 -24 -24 -25 -25 -25 -25 -25 -26 -26 -26 -27 -28 -29 -30 -31 -31 -32 -32 -32 -33 -33 -33 -33 -33 -32 -31 -30 -29 -29 -28 -27 -27 -27 -27 -26 -26 -26 -26 -25 -25 -24 -24 -23 -24 -24 -24 -24 -24 -24 -24
-13 -13 -13 -14 -14 -15 -16 -17 -19 -21 -22 -22 -23 -24 -24 -24 -25 -25 -25 -25 -26 -27 -28 -28 -30 -30 -31 -31 -32 -32 -32 -33 -33 -33 -33 -33 -32 -31 -30 -29 -29 -28 -27 -27 -26 -26 -26 -26 -26 -26 -25 -25 -24 -24 -23 -23 -24 -24 -24 -24 -24 -24 -24
-13 -13 -13 -14 -15 -16 -17 -18 -19 -20 -21 -23 -24 -24 -24 -24 -24 -25 -25 -26 -27 -28 -29 -30 -31 -31 -31 -32 -32 -32 -33 -33 -33 -33 -32 -31 -31 -30 -29 -28 -27 -27 -26 -26 -26 -26 -26 -26 -25 -25 -25 -24 -24 -23 -23 -24 -24 -24 -24 -24 -24 -24 -24
-13 -13 -14 -15 -16 -17 -18 -19 -20 -21 -23 -24 -24 -24 -24 -24 -25 -25 -27 -28 -29 -30 -30 -31 -31 -31 -32 -32 -32 -33 -33 -33 -33 -32 -31 -30 -29 -29 -28 -27 -27 -26 -26 -26 -26 -26 -25 -25 -25 -25 -24 -24 -24 -24 -24 -24 -24 -24 -24 -24 -24 -24 -24
-13 -14 -15 -16 -17 -18 -19 -20 -21 -22 -23 -24 -24 -24 -24 -25 -25 -26 -27 -29 -29 -30 -31 -31 -32 -32 -32 -32 -33 -33 -33 -33 -32 -30 -29 -29 -28 -27 -27 -26 -26 -26 -26 -25 -25 -25 -25 -25 -24 -24 -24 -24 -24 -24 -24 -24 -24 -24 -24 -24 -24 -24 -24
-14 -15 -16 -17 -18 -20 -21 -21 -22 -23 -23 -23 -23 -23 -24 -25 -26 -27 -28 -29 -30 -31 -31 -32 -32 -32 -33 -33 -33 -32 -31 -30 -30 -29 -28 -27 -27 -26 -26 -26 -25 -25 -25 -25 -25 -25 -25 -24 -24 -24 -24 -24 -24 -24 -24 -24 -24 -24 -24 -24 -24 -24 -24
-16 -17 -18 -20 -21 -21 -22 -22 -22 -22 -22 -22 -22 -24 -25 -26 -27 -28 -29 -30 -31 -31 -32 -32 -32 -33 -33 -33 -32 -31 -30 -28 -28 -27 -27 -26 -26 -26 -25 -25 -25 -25 -25 -25 -25 -25 -25 -25 -25 -25 -24 -24 -24 -24 -24 -24 -24 -24 -24 -24 -24 -24 -24
Wind_Speed
25 25 26 27 27 28 28 28 28 27 27 26 25 24 23 23 23 21 20 18 17 15 13 12 12 12 12 11 11 10 9 9 9 10 10 10 10 10 9 9 8 7 7 7 7 7 7 8 9 10 10 11 12 13 14 15 16 16 17 18 18 18 19
25 26 27 28 28 29 29 28 28 27 26 25 25 25 25 24 23 22 20 18 16 15 14 13 12 12 11 11 10 9 9 9 9 9 9 9 9 9 8 8 7 7 6 6 7 7 8 9 10 11 12 12 13 14 14 15 16 17 18 19 19 20 20
26 27 28 29 29 29 29 28 27 26 25 24 24 25 25 24 23 21 19 17 15 14 14 13 12 11 10 10 9 9 9 9 9 8 8 8 8 8 7 7 7 7 7 7 7 7 8 9 10 12 13 14 14 15 16 17 18 19 20 20 21 21 21
26 28 29 29 29 29 28 28 27 27 26 25 24 24 24 23 22 20 17 16 15 14 13 12 11 11 10 9 9 9 9 9 8 8 8 7 7 7 7 7 7 7 7 8 8 8 8 10 11 12 14 15 15 16 17 19 20 20 21 21 21 22 22
27 28 29 29 29 29 28 27 27 27 27 25 24 23 22 21 20 18 17 15 14 14 13 12 11 11 11 10 9 9 9 9 8 8 7 7 6 7 7 7 7 7 8 8 9 10 10 10 11 12 14 16 16 17 18 20 20 21 22 22 21 21 22
28 29 29 29 28 28 28 27 27 27 26 25 24 22 21 19 18 16 15 15 14 14 13 12 12 11 11 10 10 10 9 8 8 7 7 6 7 7 8 8 8 8 9 9 10 11 11 11 12 13 14 17 18 19 21 22 22 22 22 23 22 21 21
28 29 29 29 28 28 28 28 27 26 25 24 23 21 20 18 17 16 15 15 14 14 13 12 12 11 11 11 10 10 9 8 7 7 7 7 7 8 8 9 9 9 10 10 10 12 12 13 14 15 15 17 20 21 22 23 25 24 23 25 25 23 23
29 30 30 29 29 28 28 27 26 26 25 23 22 20 19 17 16 15 15 15 14 13 13 12 12 11 11 11 10 9 8 8 7 7 7 8 8 8 9 10 10 11 11 12 12 13 14 14 14 16 17 18 20 22 23 24 26 27 26 27 27 26 25
29 30 30 29 29 28 27 27 26 24 23 21 20 19 17 16 16 16 15 15 14 13 13 13 12 12 11 10 10 9 8 8 8 8 8 8 9 9 10 11 11 12 12 13 13 14 15 15 15 17 19 20 21 22 24 24 26 29 29 30 30 27 25
30 30 30 30 29 29 28 27 25 24 22 21 19 19 18 18 17 16 15 14 13 13 13 12 12 11 11 10 9 9 9 9 9 9 9 9 9 10 11 12 13 13 14 14 14 15 16 17 17 17 20 21 22 23 25 26 27 29 30 31 33 31 26
31 31 30 30 30 30 29 27 26 25 23 22 21 19 18 17 16 16 15 14 13 12 12 11 11 11 10 10 9 9 9 9 9 9 10 10 10 11 12 13 14 15 15 16 16 17 18 19 19 19 20 22 23 24 25 26 28 30 31 32 34 35 31
31 32 31 31 31 30 29 28 26 25 24 23 21 19 18 16 15 15 14 13 13 12 11 11 10 10 10 10 9 9 9 10 10 10 10 11 11 12 13 14 15 16 17 17 18 19 18 20 21 20 20 22 24 25 26 27 28 29 31 32 33 35 33
32 33 32 32 31 30 29 28 27 26 24 22 21 19 18 16 15 14 13 13 12 12 11 11 11 10 10 10 10 10 10 11 11 11 11 12 12 13 14 16 17 18 18 19 20 21 20 20 22 22 20 21 24 27 28 29 29 29 31 32 33 34 33
33 33 32 32 31 29 29 28 27 25 24 22 21 19 18 17 15 15 14 13 12 12 12 11 11 10 10 10 11 11 11 12 12 12 12 12 13 14 15 16 18 18 19 20 22 23 22 20 22 23 22 22 24 27 29 29 31 31 31 33 34 34 34
33 32 32 31 30 29 28 27 26 25 24 22 21 19 18 17 16 15 14 13 13 12 11 11 11 11 11 11 11 11 12 12 12 12 13 13 14 15 16 17 18 18 20 21 22 24 23 21 21 23 23 23 24 27 29 30 31 32 32 34 35 35 34
32 32 31 31 30 29 28 27 26 25 23 22 21 20 19 17 16 15 14 13 12 12 11 11 11 11 11 11 12 12 12 12 13 13 13 14 15 16 17 17 18 19 21 22 23 23 23 22 22 22 24 24 25 27 29 30 32 32 32 34 36 36 34
32 32 31 31 30 29 27 26 25 24 23 22 21 20 19 17 16 15 14 13 12 12 11 11 11 11 11 11 12 13 13 13 14 14 15 16 16 17 18 17 17 20 21 22 23 22 22 23 22 23 24 24 25 26 27 29 32 31 30 32 35 36 34
32 32 31 30 29 27 26 25 24 24 23 22 21 20 19 18 17 16 14 14 13 12 12 12 11 12 12 12 13 14 14 15 15 15 16 18 18 20 19 17 18 21 21 21 22 22 23 23 23 24 25 24 24 24 24 27 29 28 28 30 32 33 33
32 32 30 29 27 26 25 25 24 24 23 22 21 20 19 18 17 16 15 14 13 13 12 12 12 12 13 13 14 14 15 16 16 17 18 19 21 21 20 19 21 23 22 22 23 23 23 24 24 25 26 25 25 24 24 26 27 26 27 29 29 29 29
32 31 29 28 27 26 26 25 25 25 24 23 22 20 19 18 17 16 15 14 14 13 13 13 13 13 13 14 15 15 16 17 18 18 19 21 22 22 21 21 23 23 24 25 25 25 26 26 26 27 27 26 26 25 25 25 25 25 26 27 28 27 26
31 29 28 27 27 27 27 26 26 25 24 23 22 21 19 18 17 16 16 15 15 14 14 13 14 14 15 15 16 16 17 18 19 20 21 21 22 22 22 23 24 24 25 27 28 28 29 29 28 29 28 28 28 27 26 25 25 25 26 26 27 26 26
30 29 27 27 27 27 27 27 26 25 25 23 22 21 20 18 17 17 17 16 15 15 14 14 15 15 16 17 18 18 19 19 20 21 22 22 22 22 23 24 25 26 27 29 30 31 32 31 30 31 30 29 29 28 27 27 26 26 26 25 25 25 26
29 28 28 28 28 27 27 26 26 25 24 23 22 21 20 19 18 18 17 16 15 15 15 15 16 17 18 19 19 20 20 21 22 22 22 22 22 23 24 25 26 27 29 30 32 33 34 33 32 32 31 30 29 29 28 28 27 26 26 26 25 25 26
28 28 28 28 28 27 27 27 26 24 23 23 22 21 20 19 19 18 17 16 16 16 16 17 17 18 19 20 21 21 22 22 23 22 22 22 23 24 25 26 27 28 30 32 33 34 35 34 32 31 31 30 29 29 28 27 27 26 25 26 26 26 25
28 28 28 27 27 27 26 26 25 24 23 23 22 21 20 19 19 18 17 17 17 17 18 18 19 20 21 22 22 23 23 23 22 22 23 23 24 25 26 27 28 29 30 32 34 34 34 33 31 30 29 28 28 27 27 26 26 26 25 25 26 26 26
29 28 28 27 26 26 25 24 24 23 23 22 22 21 20 19 18 18 18 18 18 18 19 20 21 22 23 23 24 24 24 23 23 23 23 24 24 26 26 27 28 29 31 33 34 34 33 32 30 29 28 27 26 26 25 24 25 26 25 24 25 26 26
29 28 28 27 26 25 25 24 24 23 23 22 21 20 19 19 19 19 19 19 19 19 20 22 23 24 24 25 25 25 24 24 24 24 24 25 25 27 27 28 29 30 32 33 33 32 32 31 29 28 27 26 26 26 24 22 23 25 25 24 24 26 28
29 28 27 26 25 25 24 24 24 23 21 20 19 19 19 19 19 19 19 19 20 21 23 24 25 25 26 26 26 26 25 25 25 26 26 26 27 28 28 29 30 31 32 32 31 31 32 30 29 28 27 26 26 25 23 21 22 23 24 22 23 25 27
26 26 25 24 23 23 24 23 21 19 18 18 18 19 19 19 19 20 20 21 22 24 25 26 26 27 27 27 27 27 26 26 27 27 28 28 28 29 30 30 31 32 31 30 30 31 31 31 30 30 28 27 27 25 22 21 21 22 22 22 22 25 26
23 22 23 23 23 23 23 22 20 19 19 20 20 20 20 20 20 21 21 22 24 25 26 27 28 28 28 27 28 28 27 27 28 29 30 30 30 30 31 31 31 31 30 29 30 30 31 31 31 31 29 27 27 25 22 20 21 21 22 22 23 24 25
24 24 25 25 24 24 23 22 21 21 21 21 20 20 20 20 21 21 22 23 25 27 29 29 29 29 29 28 29 29 29 29 30 31 31 31 31 30 30 30 30 29 29 29 30 30 31 31 31 30 28 26 25 25 23 21 21 21 22 23 23 25 26
26 25 25 24 23 23 22 21 21 21 20 20 20 20 20 20 21 22 23 24 27 30 30 30 31 31 30 29 30 30 30 31 32 32 32 32 32 31 30 29 29 29 29 30 30 30 31 31 29 28 27 25 24 24 24 23 22 22 23 24 24 25 26
26 24 23 22 22 21 20 20 20 20 20 19 19 20 20 21 22 23 24 27 29 31 31 31 31 32 31 30 31 31 32 32 33 32 32 32 31 31 30 28 28 29 29 30 30 30 30 29 27 26 26 25 24 24 24 24 23 23 24 25 26 26 26
25 23 21 21 20 19 19 19 19 19 19 19 19 20 21 23 24 25 27 29 30 32 32 32 32 32 32 31 32 32 32 33 32 32 31 31 31 31 30 29 28 28 28 28 28 29 29 28 26 25 25 25 25 24 24 25 25 25 26 26 27 27 27
21 20 19 19 18 18 19 19 18 18 18 18 19 21 22 25 27 28 28 29 30 31 32 32 32 33 32 32 32 32 32 32 31 31 31 31 31 30 30 29 27 27 27 27 27 28 28 27 26 25 24 25 25 25 26 26 26 26 27 27 27 28 28
18 18 18 18 18 18 18 18 18 18 19 20 21 22 25 27 29 29 29 29 29 30 31 32 33 33 32 32 32 32 31 31 31 31 31 31 30 30 29 29 27 26 26 26 27 28 27 26 26 25 24 24 25 26 26 27 27 27 28 27 28 28 28
Wind_Direction
240 237 234 229 225 220 217 216 215 214 214 211 206 203 200 197 194 192 193 193 192 191 194 202 208 208 208 207 206 206 206 206 206 206 208 210 210 209 208 207 207 209 208 212 226 241 253 265 274 280 285 289 292 296 298 301 303 304 306 308 310 313 314
237 233 231 227 224 220 217 215 214 212 209 205 202 198 194 193 191 189 188 190 192 196 202 208 210 211 212 213 213 214 214 215 215 213 210 211 211 211 213 213 213 218 220 223 235 248 259 269 277 283 286 288 289 291 294 296 299 301 304 307 310 313 315
234 231 228 225 222 219 216 213 211 207 203 200 199 197 192 190 189 187 189 194 200 208 215 215 212 210 214 216 214 215 217 218 217 217 215 212 213 217 220 223 225 229 233 236 241 250 261 270 277 284 287 289 292 294 297 299 301 303 305 308 312 314 316
232 229 226 222 220 217 213 210 206 201 198 196 197 197 193 189 186 188 193 201 210 215 214 209 202 201 208 214 215 214 216 219 219 219 220 219 220 225 230 235 237 240 247 254 259 262 268 274 279 285 288 291 294 296 298 300 302 304 307 310 313 316 318
230 227 223 220 218 215 211 207 203 199 196 194 193 194 194 192 191 193 199 205 212 214 211 206 201 200 206 209 211 215 217 220 221 223 227 231 234 238 242 247 250 252 255 260 265 272 278 284 287 292 295 297 298 298 298 299 302 305 308 310 314 319 319
227 223 219 217 215 212 209 204 200 198 195 193 192 192 193 195 196 200 205 211 214 215 212 206 199 198 204 208 210 214 218 222 224 228 234 241 247 252 255 259 262 265 266 269 273 279 285 291 295 298 299 300 301 302 302 304 306 309 311 311 313 317 318
224 219 215 213 210 208 205 201 198 196 194 193 193 193 195 198 202 206 210 214 214 212 206 198 195 197 202 207 209 212 217 222 227 234 241 248 255 261 266 272 276 279 281 284 288 290 292 297 300 301 302 302 305 307 309 310 309 310 312 312 314 319 321
222 216 212 209 206 203 200 197 196 194 194 194 194 196 198 202 207 211 214 213 209 203 195 190 192 197 202 206 210 214 220 227 233 240 248 255 262 268 275 280 284 287 289 290 292 294 295 298 301 303 304 305 307 308 309 310 310 312 314 314 316 322 325
219 214 209 204 201 199 196 196 195 195 195 197 198 201 204 207 211 212 211 208 200 192 189 189 193 198 203 209 214 219 226 236 243 247 253 260 266 272 277 282 285 287 289 291 294 297 299 301 305 306 306 307 309 308 308 310 312 313 315 315 315 319 324
214 210 206 201 197 195 195 195 195 196 198 201 205 209 211 212 210 207 203 199 194 190 189 191 196 202 207 213 220 227 233 240 249 253 258 263 268 274 278 282 286 289 291 295 298 301 302 305 308 309 309 310 310 309 309 312 312 312 314 314 313 316 321
208 204 201 199 197 196 196 196 196 198 201 203 207 209 210 209 205 201 196 192 191 192 193 197 202 207 214 220 225 233 239 245 252 257 263 267 272 277 281 285 288 290 293 297 300 303 305 307 308 310 311 311 309 309 310 312 312 313 314 315 315 316 319
204 202 200 199 199 198 197 197 199 202 205 206 207 206 204 202 199 196 193 191 191 194 199 205 210 215 222 227 233 241 247 252 256 261 266 271 276 280 285 287 290 293 296 300 302 303 305 307 307 309 312 311 309 309 311 311 311 312 312 313 313 313 316
203 202 201 200 200 199 199 201 203 206 207 207 206 202 198 195 193 192 192 192 196 200 206 211 216 223 230 236 243 249 253 257 262 266 270 276 280 284 288 291 295 298 300 303 303 302 305 307 307 309 313 312 309 309 310 309 309 309 308 308 310 310 314
203 203 202 201 200 200 201 204 207 208 208 206 202 198 194 191 190 192 194 198 202 207 213 219 225 232 239 244 249 253 257 262 267 270 275 280 283 288 292 295 298 301 301 302 301 301 305 308 307 309 312 311 308 307 307 306 305 306 306 308 309 310 314
204 203 202 201 201 202 205 207 209 208 206 203 198 194 192 192 193 196 199 204 210 215 221 227 233 238 244 248 253 257 261 266 271 275 280 284 288 292 295 297 299 299 299 299 298 300 305 307 307 308 309 308 305 303 302 303 303 306 309 310 310 310 315
204 203 203 202 202 204 207 208 208 206 203 199 195 194 194 195 197 201 205 211 216 222 228 234 240 244 249 253 258 263 268 272 277 281 284 288 291 292 295 298 299 296 295 295 296 299 302 303 304 303 302 302 301 301 303 304 305 308 312 311 308 308 312
204 204 204 204 205 207 208 208 206 203 200 197 196 195 196 198 201 205 210 215 221 227 233 239 245 251 257 262 267 272 275 278 282 286 289 291 292 292 295 298 294 290 291 292 294 296 297 298 300 299 298 300 301 304 306 303 302 307 308 303 302 304 307
203 203 205 207 209 209 209 208 205 201 199 198 198 199 200 203 206 210 214 219 225 231 237 243 250 256 263 268 271 276 280 283 287 290 292 293 292 293 297 297 289 287 290 291 292 294 294 296 298 297 297 299 300 301 300 295 296 300 298 294 296 299 302
204 204 205 207 209 210 208 205 203 201 200 200 201 203 205 207 210 214 219 225 230 235 241 247 253 258 264 269 273 277 282 285 289 292 293 293 294 296 299 296 291 291 293 292 292 294 294 295 297 296 297 299 300 299 297 293 294 294 292 291 292 294 296
204 205 207 207 208 207 206 205 203 201 201 203 205 207 209 212 214 219 225 229 234 240 245 250 256 261 266 270 273 277 281 285 289 292 293 294 296 298 298 295 293 296 297 296 296 297 296 296 297 298 299 300 300 299 298 295 293 292 290 290 290 292 292
205 206 207 208 208 207 206 205 203 202 203 205 208 210 212 215 218 223 228 233 238 243 248 254 259 264 268 271 275 279 284 288 291 293 294 296 297 298 298 296 297 299 298 298 298 298 297 298 300 301 302 302 302 301 299 295 293 291 289 287 288 291 290
206 207 207 207 208 207 206 205 204 204 206 208 210 212 214 217 221 227 232 237 243 248 253 258 263 268 272 276 280 284 288 291 293 295 297 299 299 299 299 299 300 300 299 299 299 299 300 302 304 304 304 304 302 300 297 295 294 292 289 287 288 289 288
207 207 207 207 207 207 206 205 206 207 209 211 213 214 216 220 225 231 237 243 248 254 259 264 268 273 277 280 284 288 292 294 296 298 300 301 301 301 301 301 301 301 301 301 301 301 302 304 304 304 303 302 300 298 296 296 295 292 289 287 286 285 284
207 208 209 208 207 207 206 207 208 210 211 213 215 217 220 225 230 236 242 247 253 259 264 269 274 276 279 283 287 291 294 296 298 300 299 300 300 300 301 302 302 303 302 301 300 300 301 302 303 302 300 298 297 296 295 295 294 291 289 286 284 282 281
209 210 210 210 209 208 209 209 210 212 213 215 218 221 225 230 235 241 247 252 258 263 268 272 276 278 282 286 289 293 295 297 298 298 297 299 300 301 302 302 302 302 300 298 298 298 299 300 301 299 297 296 296 294 294 294 291 288 285 283 281 280 278
210 209 209 210 209 209 210 211 212 214 216 219 222 226 230 235 240 246 252 257 262 267 271 274 276 279 284 288 291 294 295 297 297 296 297 299 301 301 302 301 300 298 296 295 297 297 298 299 299 297 296 295 294 294 293 292 289 286 284 283 282 281 278
210 210 210 210 209 209 210 212 214 216 219 223 227 231 236 241 246 252 258 263 267 270 272 275 278 282 287 290 292 294 296 297 297 297 298 300 301 300 300 299 297 296 295 295 297 297 297 298 297 296 295 294 293 292 291 290 288 287 287 286 284 282 280
212 212 212 212 210 210 212 214 217 220 223 228 231 235 241 246 252 258 262 267 270 272 274 278 282 286 289 291 293 295 297 297 298 299 300 301 301 300 299 297 296 295 294 296 297 296 295 295 295 294 294 293 290 289 287 286 285 286 287 287 284 281 280
219 216 214 213 212 213 216 219 222 224 226 230 233 237 244 250 255 260 265 269 272 275 278 282 286 288 290 293 295 296 298 298 299 301 301 301 300 298 296 294 293 293 293 294 294 293 292 292 291 291 290 290 287 284 282 282 283 284 285 285 282 280 279
219 216 213 211 211 215 218 219 221 221 224 229 234 239 246 251 256 262 267 272 277 280 283 286 289 291 293 296 297 298 299 301 302 302 300 299 297 294 292 291 290 290 291 291 289 288 288 287 287 287 287 286 283 280 278 279 280 283 285 284 283 282 280
213 212 212 212 213 216 218 219 221 223 227 233 238 244 250 256 261 267 274 279 282 284 286 288 291 293 295 297 298 299 302 303 301 299 297 295 292 290 289 288 288 289 289 287 285 285 284 284 284 284 283 281 279 277 277 277 279 283 285 286 285 284 281
215 215 215 216 217 220 222 224 226 230 234 239 245 251 257 263 269 275 279 282 282 283 287 290 292 294 296 298 299 301 301 299 296 294 293 291 290 288 287 287 287 287 286 284 283 282 281 281 282 281 280 278 277 277 278 278 279 283 286 286 285 283 282
218 219 219 219 221 223 226 228 231 234 239 244 251 258 265 270 274 277 279 280 281 284 288 291 292 293 296 298 298 297 295 293 291 291 290 289 288 287 286 285 284 284 282 281 280 279 279 279 279 279 278 277 276 277 279 280 281 283 285 286 285 283 283
218 220 221 223 225 227 229 232 236 241 247 253 260 266 271 274 275 277 279 281 284 286 289 290 291 293 294 294 293 291 290 289 289 289 288 287 287 286 285 284 281 280 278 277 276 275 276 277 277 276 276 276 276 277 278 279 281 283 284 285 285 284 284
222 223 224 225 226 229 232 237 244 250 256 262 266 270 273 274 276 278 281 282 284 285 287 288 288 289 290 290 289 289 288 288 288 287 286 286 285 285 283 282 279 276 274 272 272 272 272 274 274 273 273 275 276 278 278 279 280 282 282 282 283 284 284
226 226 226 226 228 234 240 247 254 259 263 266 269 271 272 274 277 280 281 281 282 283 284 285 286 287 289 289 288 288 288 287 286 285 284 284 284 283 281 279 277 275 272 270 269 270 271 272 273 273 274 277 278 279 278 279 279 280 280 279 280 282 283
Height
1451 1452 1453 1454 1455 1456 1458 1459 1461 1462 1463 1463 1464 1465 1466 1466 1467 1469 1471 1473 1474 1475 1477 1477 1478 1480 1481 1481 1482 1482 1482 1483 1484 1484 1485 1486 1487 1488 1489 1489 1490 1491 1492 1492 1493 1494 1494 1495 1495 1495 1495 1495 1494 1494 1494 1493 1492 1492 1491 1491 1491 1490 1489
1449 1450 1452 1453 1454 1455 1456 1458 1459 1461 1462 1463 1464 1464 1465 1465 1466 1468 1469 1471 1473 1474 1475 1476 1477 1479 1479 1480 1480 1480 1481 1482 1482 1483 1484 1485 1486 1487 1488 1488 1489 1490 1490 1491 1492 1492 1493 1493 1493 1493 1493 1493 1493 1492 1492 1491 1490 1490 1489 1488 1488 1487 1486
1446 1448 1450 1452 1453 1455 1456 1457 1458 1459 1461 1462 1463 1464 1464 1465 1466 1467 1468 1470 1472 1473 1474 1475 1476 1477 1478 1478 1479 1479 1480 1481 1481 1482 1482 1483 1484 1485 1486 1487 1488 1488 1489 1489 1490 1490 1491 1491 1491 1491 1490 1490 1490 1489 1489 1488 1487 1487 1486 1485 1485 1484 1483
1445 1446 1448 1450 1452 1454 1455 1456 1457 1458 1460 1461 1462 1464 1464 1464 1465 1466 1467 1468 1470 1471 1472 1473 1474 1475 1476 1477 1478 1479 1479 1480 1480 1481 1481 1482 1483 1484 1484 1485 1486 1487 1487 1488 1488 1488 1489 1489 1489 1488 1488 1487 1488 1487 1486 1485 1485 1484 1483 1482 1482 1481 1480
1443 1444 1446 1449 1451 1453 1454 1455 1457 1458 1459 1460 1461 1463 1463 1464 1464 1465 1466 1467 1468 1469 1470 1471 1473 1474 1475 1476 1477 1478 1478 1479 1479 1479 1480 1481 1481 1482 1483 1484 1484 1485 1485 1486 1486 1486 1486 1487 1487 1486 1485 1484 1484 1484 1483 1483 1482 1481 1480 1479 1479 1478 1476
1440 1442 1444 1447 1449 1451 1453 1455 1456 1457 1459 1459 1460 1461 1462 1463 1463 1464 1465 1466 1467 1468 1469 1470 1471 1472 1473 1474 1475 1476 1477 1477 1478 1478 1479 1479 1480 1480 1481 1482 1482 1482 1483 1484 1484 1484 1484 1484 1484 1483 1482 1481 1480 1480 1479 1479 1478 1478 1476 1475 1475 1475 1474
1438 1440 1443 1445 1447 1449 1451 1453 1455 1457 1458 1459 1460 1460 1461 1462 1462 1463 1464 1465 1466 1466 1467 1469 1470 1471 1472 1473 1474 1475 1476 1476 1477 1477 1477 1478 1478 1479 1479 1479 1480 1480 1480 1481 1481 1482 1482 1482 1481 1480 1480 1478 1477 1476 1475 1474 1473 1473 1473 1471 1470 1471 1470
1437 1439 1441 1443 1445 1448 1450 1452 1454 1456 1457 1458 1459 1460 1460 1461 1462 1463 1463 1464 1465 1465 1466 1467 1468 1469 1471 1472 1473 1474 1474 1475 1475 1475 1476 1476 1476 1477 1477 1477 1477 1477 1478 1479 1479 1479 1479 1479 1479 1478 1477 1476 1474 1473 1472 1471 1469 1468 1468 1467 1466 1466 1465
1435 1437 1439 1442 1444 1447 1449 1451 1453 1455 1457 1458 1459 1459 1460 1460 1461 1462 1462 1463 1463 1464 1465 1466 1467 1468 1469 1470 1471 1472 1472 1473 1473 1474 1474 1474 1475 1475 1475 1475 1475 1475 1476 1476 1476 1476 1476 1476 1476 1475 1473 1473 1472 1470 1469 1468 1466 1464 1462 1461 1461 1463 1463
1433 1436 1438 1440 1443 1445 1448 1450 1452 1454 1455 1457 1458 1458 1459 1459 1460 1460 1461 1462 1462 1463 1464 1465 1466 1467 1468 1469 1469 1470 1470 1471 1471 1472 1473 1473 1473 1473 1473 1473 1473 1473 1473 1474 1474 1473 1473 1472 1472 1472 1470 1469 1468 1467 1465 1464 1462 1460 1459 1457 1455 1457 1460
1431 1434 1437 1439 1441 1444 1446 1448 1450 1452 1453 1455 1456 1457 1457 1458 1459 1459 1460 1461 1461 1462 1463 1464 1465 1466 1466 1467 1468 1468 1469 1469 1470 1470 1471 1471 1471 1471 1471 1471 1471 1471 1471 1471 1471 1470 1470 1469 1469 1469 1468 1466 1464 1463 1462 1461 1459 1456 1455 1453 1451 1450 1453
1430 1433 1435 1437 1440 1442 1444 1447 1449 1450 1452 1453 1454 1455 1456 1457 1458 1458 1459 1460 1460 1461 1462 1463 1464 1464 1465 1466 1466 1467 1467 1468 1468 1469 1469 1469 1469 1469 1469 1469 1468 1468 1468 1468 1467 1467 1467 1466 1465 1465 1465 1463 1460 1459 1458 1457 1455 1454 1452 1450 1449 1447 1448
1428 1431 1433 1436 1438 1440 1443 1445 1447 1449 1450 1451 1453 1454 1455 1456 1457 1457 1458 1459 1459 1460 1461 1462 1462 1463 1463 1464 1464 1465 1466 1466 1466 1467 1467 1467 1467 1467 1467 1466 1466 1465 1465 1464 1464 1463 1464 1464 1462 1461 1461 1460 1457 1455 1454 1453 1452 1451 1449 1448 1446 1444 1444
1426 1429 1432 1434 1436 1439 1441 1443 1445 1447 1448 1450 1451 1452 1453 1455 1456 1456 1457 1458 1459 1459 1460 1460 1461 1461 1462 1463 1463 1463 1464 1464 1464 1465 1465 1465 1465 1465 1464 1464 1463 1462 1462 1461 1460 1460 1460 1460 1458 1457 1457 1457 1455 1452 1451 1449 1448 1448 1446 1444 1442 1441 1441
1425 1428 1430 1433 1435 1437 1439 1441 1443 1445 1446 1448 1449 1451 1452 1453 1454 1455 1456 1457 1457 1458 1458 1459 1459 1460 1460 1461 1461 1461 1462 1462 1462 1462 1462 1463 1462 1462 1462 1461 1460 1460 1459 1458 1457 1456 1456 1456 1455 1454 1454 1453 1452 1450 1448 1447 1445 1443 1442 1440 1437 1436 1437
1424 1427 1429 1431 1433 1435 1437 1439 1441 1443 1444 1446 1447 1449 1450 1452 1453 1454 1455 1455 1456 1456 1457 1457 1458 1458 1459 1459 1459 1459 1459 1459 1460 1460 1460 1460 1460 1460 1459 1459 1458 1457 1456 1455 1454 1454 1453 1453 1453 1452 1451 1451 1449 1447 1445 1443 1440 1439 1438 1435 1432 1431 1433
1422 1425 1428 1430 1431 1433 1435 1437 1439 1441 1443 1444 1446 1447 1449 1450 1451 1452 1453 1453 1454 1454 1455 1455 1456 1456 1456 1457 1457 1457 1457 1457 1457 1457 1457 1457 1457 1457 1457 1457 1455 1454 1453 1452 1451 1451 1450 1450 1450 1450 1449 1448 1447 1444 1442 1439 1436 1436 1436 1433 1429 1428 1428
1421 1423 1426 1428 1430 1432 1434 1436 1437 1439 1441 1443 1444 1446 1447 1448 1449 1450 1451 1452 1452 1453 1453 1453 1454 1454 1454 1454 1454 1454 1454 1454 1454 1454 1454 1454 1454 1454 1454 1454 1452 1450 1450 1449 1448 1448 1447 1447 1447 1446 1445 1444 1443 1442 1441 1437 1435 1434 1433 1430 1428 1426 1424
1419 1421 1424 1426 1428 1430 1432 1434 1436 1437 1439 1441 1442 1444 1445 1446 1447 1448 1449 1450 1450 1451 1451 1451 1452 1452 1452 1452 1451 1451 1452 1451 1451 1451 1451 1450 1450 1450 1450 1449 1448 1447 1447 1446 1445 1445 1444 1443 1443 1442 1441 1441 1440 1439 1438 1435 1433 1431 1430 1427 1425 1424 1422
1418 1420 1422 1424 1426 1428 1430 1432 1433 1435 1437 1438 1440 1442 1443 1444 1445 1446 1447 1448 1448 1448 1449 1449 1449 1449 1449 1449 1449 1449 1449 1449 1449 1448 1448 1447 1446 1446 1446 1445 1444 1443 1442 1441 1440 1440 1440 1439 1439 1438 1437 1436 1435 1434 1433 1431 1429 1427 1426 1423 1421 1421 1420
1416 1418 1420 1422 1424 1426 1427 1429 1431 1433 1434 1436 1438 1439 1441 1442 1444 1444 1445 1445 1446 1446 1447 1447 1447 1447 1447 1446 1446 1446 1446 1446 1446 1445 1444 1444 1443 1442 1442 1441 1440 1439 1438 1437 1436 1435 1435 1435 1434 1433 1432 1431 1430 1429 1428 1426 1425 1423 1422 1420 1417 1417 1415
1414 1416 1418 1420 1422 1424 1425 1427 1429 1431 1432 1434 1436 1437 1439 1440 1441 1442 1443 1443 1444 1444 1444 1444 1444 1444 1444 1444 1443 1443 1443 1443 1442 1442 1441 1440 1439 1438 1437 1436 1435 1435 1434 1433 1431 1430 1429 1429 1429 1428 1427 1426 1425 1424 1422 1421 1420 1419 1417 1416 1414 1413 1411
1412 1414 1416 1418 1420 1421 1423 1425 1427 1428 1430 1432 1433 1435 1437 1438 1439 1440 1440 1441 1441 1442 1442 1442 1442 1441 1441 1441 1441 1440 1440 1439 1439 1438 1437 1436 1435 1434 1433 1432 1431 1430 1429 1427 1426 1425 1424 1424 1424 1423 1422 1421 1420 1419 1418 1417 1416 1415 1413 1412 1411 1410 1409
1411 1412 1414 1416 1417 1419 1421 1423 1425 1426 1428 1430 1431 1433 1434 1435 1436 1437 1438 1438 1439 1439 1439 1439 1438 1438 1438 1438 1437 1437 1437 1436 1435 1434 1433 1432 1431 1430 1429 1428 1426 1425 1424 1422 1421 1420 1419 1420 1420 1419 1418 1417 1416 1414 1413 1413 1411 1410 1409 1408 1407 1407 1406
1409 1410 1412 1414 1415 1417 1419 1421 1423 1424 1426 1428 1429 1431 1432 1433 1434 1435 1435 1436 1436 1436 1436 1436 1435 1435 1435 1434 1434 1434 1433 1433 1432 1431 1430 1429 1428 1427 1425 1424 1422 1421 1419 1417 1416 1416 1415 1415 1416 1415 1413 1412 1411 1410 1409 1408 1407 1406 1405 1405 1403 1402 1402
1406 1408 1409 1411 1413 1415 1417 1419 1421 1422 1424 1425 1427 1428 1429 1430 1431 1432 1432 1433 1433 1433 1433 1433 1432 1432 1431 1431 1430 1430 1429 1429 1428 1427 1426 1425 1424 1423 1421 1420 1418 1416 1415 1413 1412 1412 1411 1411 1411 1410 1409 1408 1406 1405 1405 1404 1403 1402 1401 1401 1399 1398 1397
1403 1405 1406 1408 1411 1413 1415 1417 1418 1420 1421 1423 1424 1426 1427 1428 1428 1429 1429 1430 1430 1430 1430 1429 1429 1428 1428 1427 1427 1426 1426 1425 1424 1423 1422 1422 1420 1419 1417 1416 1414 1412 1411 1409 1408 1407 1406 1406 1405 1404 1404 1403 1402 1401 1401 1400 1399 1397 1397 1397 1395 1393 1392
1400 1402 1403 1405 1408 1410 1412 1413 1415 1417 1419 1420 1422 1423 1424 1424 1425 1426 1426 1426 1426 1426 1426 1425 1425 1425 1424 1423 1423 1422 1422 1421 1420 1419 1418 1417 1416 1414 1412 1411 1410 1408 1406 1405 1404 1403 1401 1401 1400 1399 1399 1398 1397 1397 1398 1397 1395 1394 1393 1393 1392 1390 1388
1399 1401 1402 1403 1405 1407 1408 1410 1412 1414 1416 1417 1419 1420 1420 1421 1422 1422 1423 1423 1423 1422 1422 1421 1421 1421 1420 1419 1419 1418 1417 1416 1415 1414 1413 1412 1411 1409 1408 1407 1405 1404 1403 1402 1400 1398 1397 1396 1396 1395 1395 1394 1393 1393 1394 1393 1392 1391 1390 1389 1388 1386 1386
1399 1400 1400 1401 1403 1404 1405 1408 1410 1411 1413 1414 1415 1417 1417 1418 1419 1419 1419 1419 1418 1417 1417 1417 1417 1416 1416 1415 1414 1413 1412 1411 1410 1408 1407 1407 1406 1405 1404 1403 1402 1400 1400 1398 1396 1395 1393 1393 1392 1391 1391 1391 1390 1390 1390 1390 1388 1387 1386 1385 1384 1383 1382
1396 1397 1398 1399 1400 1401 1403 1405 1406 1408 1409 1411 1412 1413 1414 1415 1415 1415 1415 1415 1413 1412 1412 1412 1412 1411 1411 1411 1409 1407 1407 1406 1404 1403 1403 1402 1402 1401 1400 1399 1398 1397 1395 1393 1392 1391 1390 1389 1388 1387 1387 1387 1386 1386 1386 1386 1385 1384 1383 1382 1381 1380 1379
1394 1396 1396 1397 1398 1399 1401 1402 1404 1405 1406 1408 1409 1410 1410 1411 1411 1411 1411 1410 1409 1408 1408 1408 1407 1406 1406 1405 1404 1402 1402 1401 1400 1400 1399 1398 1397 1396 1396 1395 1394 1392 1390 1389 1388 1387 1386 1385 1385 1384 1383 1383 1382 1381 1381 1381 1381 1380 1379 1378 1378 1376 1375
1392 1394 1395 1396 1397 1398 1399 1400 1401 1403 1404 1405 1406 1406 1406 1406 1406 1406 1406 1406 1404 1403 1403 1403 1402 1401 1401 1400 1399 1398 1398 1397 1396 1395 1394 1393 1392 1391 1391 1390 1389 1387 1386 1384 1383 1383 1381 1381 1381 1380 1379 1379 1378 1378 1377 1376 1376 1376 1375 1374 1373 1373 1372
1391 1392 1393 1394 1395 1396 1397 1398 1399 1400 1401 1402 1403 1403 1403 1402 1402 1402 1402 1401 1399 1399 1398 1398 1397 1396 1396 1396 1395 1394 1394 1393 1391 1390 1389 1388 1387 1386 1385 1385 1384 1383 1381 1380 1379 1378 1377 1377 1377 1376 1375 1374 1374 1373 1373 1372 1372 1372 1371 1371 1370 1369 1368
1390 1391 1392 1393 1394 1395 1395 1396 1397 1398 1399 1399 1399 1399 1398 1397 1397 1397 1397 1397 1396 1395 1394 1393 1393 1392 1392 1391 1391 1390 1389 1387 1386 1385 1384 1383 1382 1381 1380 1380 1379 1378 1377 1376 1375 1374 1373 1372 1372 1372 1371 1370 1369 1369 1369 1368 1368 1368 1367 1367 1366 1365 1364
1389 1389 1390 1391 1392 1393 1393 1394 1395 1395 1395 1396 1396 1395 1394 1393 1393 1393 1393 1393 1392 1391 1390 1389 1388 1388 1387 1386 1385 1384 1383 1382 1381 1380 1379 1378 1377 1376 1375 1374 1374 1373 1372 1371 1370 1369 1368 1368 1367 1367 1367 1366 1365 1365 1364 1364 1364 1364 1363 1363 1363 1362 1361